Data No,UTC Date,UTC Time,Latitude,Longitude,Course(deg),Temp(degC),Sal(psu)
685,2024/1/30,11:24,35-35.82N,139-47.18E,216,11.591,
686,2024/1/30,11:25,35-35.62N,139-47.09E,191,11.664,
687,2024/1/30,11:26,35-35.41N,139-47.13E,161,11.666,
688,2024/1/30,11:27,35-35.20N,139-47.29E,145,11.552,
689,2024/1/30,11:28,35-35.00N,139-47.46E,142,11.538,
690,2024/1/30,11:29,35-34.83N,139-47.71E,127,11.501,
691,2024/1/30,11:30,35-34.66N,139-47.97E,128,11.555,
692,2024/1/30,11:31,35-34.49N,139-48.23E,128,11.436,
693,2024/1/30,11:32,35-34.31N,139-48.50E,129,11.35,
694,2024/1/30,11:33,35-34.12N,139-48.78E,129,11.206,
695,2024/1/30,11:34,35-33.94N,139-49.06E,129,11.165,
696,2024/1/30,11:35,35-33.75N,139-49.33E,129,11.143,
697,2024/1/30,11:36,35-33.56N,139-49.62E,129,11.145,
698,2024/1/30,11:37,35-33.37N,139-49.92E,128,11.195,
699,2024/1/30,11:38,35-33.19N,139-50.18E,129,11.139,
700,2024/1/30,11:39,35-32.98N,139-50.48E,133,11.101,
701,2024/1/30,11:40,35-32.74N,139-50.67E,155,11.104,
702,2024/1/30,11:41,35-32.46N,139-50.79E,161,11.024,
703,2024/1/30,11:42,35-32.17N,139-50.91E,161,10.868,
704,2024/1/30,11:43,35-31.89N,139-51.01E,168,10.926,
705,2024/1/30,11:44,35-31.58N,139-51.08E,169,10.997,
706,2024/1/30,11:45,35-31.29N,139-51.13E,171,10.829,
707,2024/1/30,11:46,35-30.98N,139-51.14E,181,10.687,
708,2024/1/30,11:47,35-30.68N,139-51.12E,182,10.641,
709,2024/1/30,11:48,35-30.37N,139-51.10E,182,10.573,
710,2024/1/30,11:49,35-30.07N,139-51.08E,182,10.526,
711,2024/1/30,11:50,35-29.77N,139-51.01E,196,10.529,
712,2024/1/30,11:51,35-29.48N,139-50.89E,197,10.56,
713,2024/1/30,11:52,35-29.19N,139-50.74E,208,10.53,
714,2024/1/30,11:53,35-28.98N,139-50.49E,229,10.549,
715,2024/1/30,11:54,35-28.79N,139-50.20E,232,10.655,
716,2024/1/30,11:55,35-28.60N,139-49.90E,231,10.75,
717,2024/1/30,11:56,35-28.41N,139-49.60E,232,10.727,
718,2024/1/30,11:57,35-28.22N,139-49.30E,232,10.788,
719,2024/1/30,11:58,35-28.03N,139-49.00E,232,10.871,
720,2024/1/30,11:59,35-27.84N,139-48.70E,228,10.943,
721,2024/1/30,12:00,35-27.60N,139-48.46E,220,10.905,
722,2024/1/30,12:01,35-27.41N,139-48.19E,232,10.825,
723,2024/1/30,12:02,35-27.23N,139-47.88E,233,10.75,
724,2024/1/30,12:03,35-27.04N,139-47.58E,233,10.7,
725,2024/1/30,12:04,35-26.86N,139-47.27E,233,10.69,
726,2024/1/30,12:05,35-26.67N,139-46.96E,234,10.666,
727,2024/1/30,12:06,35-26.50N,139-46.66E,234,10.678,
728,2024/1/30,12:07,35-26.32N,139-46.35E,234,10.647,
729,2024/1/30,12:08,35-26.14N,139-46.04E,234,10.646,
730,2024/1/30,12:09,35-25.96N,139-45.72E,234,10.651,
731,2024/1/30,12:10,35-25.77N,139-45.41E,235,10.659,
732,2024/1/30,12:11,35-25.60N,139-45.10E,234,10.662,
733,2024/1/30,12:12,35-25.42N,139-44.78E,234,10.715,
734,2024/1/30,12:13,35-25.23N,139-44.47E,234,10.796,
735,2024/1/30,12:14,35-25.06N,139-44.16E,234,10.818,
736,2024/1/30,12:15,35-24.88N,139-43.85E,234,10.85,
737,2024/1/30,12:16,35-24.70N,139-43.53E,234,10.892,
738,2024/1/30,12:17,35-24.46N,139-43.30E,212,10.94,
739,2024/1/30,12:18,35-24.19N,139-43.11E,207,10.93,
740,2024/1/30,12:19,35-23.91N,139-42.95E,205,10.909,
741,2024/1/30,12:20,35-23.65N,139-42.80E,205,10.913,
742,2024/1/30,12:21,35-23.36N,139-42.63E,205,10.907,
743,2024/1/30,12:22,35-23.08N,139-42.46E,205,10.84,
744,2024/1/30,12:23,35-22.79N,139-42.36E,189,10.852,
745,2024/1/30,12:24,35-22.48N,139-42.36E,177,10.866,
746,2024/1/30,12:25,35-22.19N,139-42.38E,176,10.913,
747,2024/1/30,12:26,35-21.87N,139-42.40E,176,10.919,
748,2024/1/30,12:27,35-21.56N,139-42.42E,176,10.98,
749,2024/1/30,12:28,35-21.25N,139-42.44E,177,10.982,
750,2024/1/30,12:29,35-20.93N,139-42.45E,178,11.036,
751,2024/1/30,12:30,35-20.66N,139-42.46E,178,11.127,
752,2024/1/30,12:31,35-20.39N,139-42.47E,177,11.147,
753,2024/1/30,12:32,35-20.14N,139-42.48E,177,11.208,
754,2024/1/30,12:33,35-19.91N,139-42.49E,178,11.261,
755,2024/1/30,12:34,35-19.71N,139-42.57E,151,11.342,
756,2024/1/30,12:35,35-19.54N,139-42.72E,144,11.462,
757,2024/1/30,12:36,35-19.35N,139-42.87E,146,11.466,
758,2024/1/30,12:37,35-19.17N,139-43.02E,145,11.524,
759,2024/1/30,12:38,35-19.00N,139-43.17E,144,11.542,
760,2024/1/30,12:39,35-18.82N,139-43.32E,143,11.589,
761,2024/1/30,12:40,35-18.65N,139-43.48E,144,11.735,
762,2024/1/30,12:41,35-18.48N,139-43.63E,144,12.026,
763,2024/1/30,12:42,35-18.28N,139-43.80E,144,12.338,
764,2024/1/30,12:43,35-18.13N,139-43.93E,144,12.512,
765,2024/1/30,12:44,35-17.95N,139-44.09E,144,12.676,
766,2024/1/30,12:45,35-17.78N,139-44.24E,143,12.775,
767,2024/1/30,12:46,35-17.61N,139-44.39E,143,12.643,
768,2024/1/30,12:47,35-17.43N,139-44.55E,144,12.655,
769,2024/1/30,12:48,35-17.26N,139-44.70E,143,12.492,
770,2024/1/30,12:49,35-17.09N,139-44.85E,143,12.317,
771,2024/1/30,12:50,35-16.92N,139-45.01E,144,12.299,
772,2024/1/30,12:51,35-16.75N,139-45.16E,142,12.252,
773,2024/1/30,12:52,35-16.57N,139-45.32E,142,12.112,
774,2024/1/30,12:53,35-16.40N,139-45.47E,144,12.085,
775,2024/1/30,12:54,35-16.23N,139-45.62E,144,12.169,
776,2024/1/30,12:55,35-16.05N,139-45.78E,144,12.031,
777,2024/1/30,12:56,35-15.88N,139-45.93E,144,12.079,
778,2024/1/30,12:57,35-15.70N,139-46.08E,148,12.123,
779,2024/1/30,12:58,35-15.50N,139-46.17E,165,12.195,
780,2024/1/30,12:59,35-15.29N,139-46.19E,175,12.065,
781,2024/1/30,13:00,35-15.07N,139-46.21E,176,12.527,
782,2024/1/30,13:01,35-14.87N,139-46.22E,177,12.909,
783,2024/1/30,13:02,35-14.65N,139-46.23E,177,12.931,
784,2024/1/30,13:03,35-14.43N,139-46.24E,178,12.982,
785,2024/1/30,13:04,35-14.22N,139-46.25E,178,13.029,
786,2024/1/30,13:05,35-14.00N,139-46.26E,179,13.73,
787,2024/1/30,13:06,35-13.79N,139-46.26E,178,14.012,
788,2024/1/30,13:07,35-13.58N,139-46.27E,179,14.131,
789,2024/1/30,13:08,35-13.37N,139-46.27E,179,14.233,
790,2024/1/30,13:09,35-13.15N,139-46.28E,178,14.337,
791,2024/1/30,13:10,35-12.93N,139-46.28E,180,14.331,
792,2024/1/30,13:11,35-12.71N,139-46.23E,194,14.258,
793,2024/1/30,13:12,35-12.49N,139-46.15E,195,14.276,
794,2024/1/30,13:13,35-12.24N,139-46.06E,200,14.167,
795,2024/1/30,13:14,35-11.99N,139-45.91E,205,14.151,
796,2024/1/30,13:15,35-11.73N,139-45.76E,205,13.975,
797,2024/1/30,13:16,35-11.46N,139-45.60E,205,13.887,
798,2024/1/30,13:17,35-11.18N,139-45.44E,204,14.49,
799,2024/1/30,13:18,35-10.90N,139-45.28E,205,14.678,
800,2024/1/30,13:19,35-10.62N,139-45.12E,205,14.311,
801,2024/1/30,13:20,35-10.33N,139-44.95E,205,14.591,
802,2024/1/30,13:21,35-10.05N,139-44.79E,205,15.635,
803,2024/1/30,13:22,35-09.76N,139-44.62E,205,15.666,
804,2024/1/30,13:23,35-09.47N,139-44.50E,195,15.52,
805,2024/1/30,13:24,35-09.17N,139-44.41E,190,15.548,
806,2024/1/30,13:25,35-08.85N,139-44.34E,189,15.773,
807,2024/1/30,13:26,35-08.55N,139-44.28E,189,15.895,
808,2024/1/30,13:27,35-08.23N,139-44.22E,185,15.981,
809,2024/1/30,13:28,35-07.92N,139-44.19E,186,16.018,
810,2024/1/30,13:29,35-07.59N,139-44.14E,187,16.026,
811,2024/1/30,13:30,35-07.30N,139-44.09E,188,16.044,
812,2024/1/30,13:31,35-06.99N,139-44.04E,187,16.049,
813,2024/1/30,13:32,35-06.67N,139-43.98E,187,16.032,
814,2024/1/30,13:33,35-06.36N,139-43.93E,188,16.06,
815,2024/1/30,13:34,35-06.05N,139-43.87E,188,16.047,
816,2024/1/30,13:35,35-05.73N,139-43.82E,188,16.031,
817,2024/1/30,13:36,35-05.43N,139-43.76E,187,16.156,
818,2024/1/30,13:37,35-05.11N,139-43.71E,188,16.249,
819,2024/1/30,13:38,35-04.80N,139-43.62E,195,16.265,
820,2024/1/30,13:39,35-04.50N,139-43.51E,197,16.242,
821,2024/1/30,13:40,35-04.18N,139-43.39E,197,16.212,
822,2024/1/30,13:41,35-03.89N,139-43.27E,197,16.167,
823,2024/1/30,13:42,35-03.58N,139-43.16E,197,16.139,
824,2024/1/30,13:43,35-03.26N,139-43.04E,195,16.09,
825,2024/1/30,13:44,35-02.94N,139-42.96E,191,16.26,
826,2024/1/30,13:45,35-02.63N,139-42.88E,192,16.584,
827,2024/1/30,13:46,35-02.32N,139-42.79E,192,16.686,
828,2024/1/30,13:47,35-02.00N,139-42.70E,192,16.792,
829,2024/1/30,13:48,35-01.67N,139-42.62E,190,17.055,
830,2024/1/30,13:49,35-01.36N,139-42.55E,190,17.407,
831,2024/1/30,13:50,35-01.04N,139-42.47E,191,17.838,
832,2024/1/30,13:51,35-00.71N,139-42.38E,191,17.727,
833,2024/1/30,13:52,35-00.39N,139-42.30E,191,17.779,
834,2024/1/30,13:53,35-00.06N,139-42.22E,191,17.764,
835,2024/1/30,13:54,34-59.73N,139-42.14E,191,17.732,
836,2024/1/30,13:55,34-59.40N,139-42.05E,191,17.678,
837,2024/1/30,13:56,34-59.06N,139-41.97E,191,17.84,
838,2024/1/30,13:57,34-58.72N,139-41.88E,191,17.969,
839,2024/1/30,13:58,34-58.38N,139-41.80E,191,17.95,
840,2024/1/30,13:59,34-58.05N,139-41.76E,179,17.937,
841,2024/1/30,14:00,34-57.72N,139-41.84E,162,17.918,
842,2024/1/30,14:01,34-57.42N,139-42.03E,148,17.837,
843,2024/1/30,14:02,34-57.15N,139-42.28E,141,17.753,
844,2024/1/30,14:03,34-56.89N,139-42.53E,141,17.773,
845,2024/1/30,14:04,34-56.62N,139-42.79E,142,17.779,
846,2024/1/30,14:05,34-56.35N,139-43.04E,142,17.805,
847,2024/1/30,14:06,34-56.06N,139-43.30E,142,17.701,
848,2024/1/30,14:07,34-55.79N,139-43.55E,142,17.659,
849,2024/1/30,14:08,34-55.51N,139-43.82E,142,17.662,
850,2024/1/30,14:09,34-55.24N,139-44.07E,142,17.686,
851,2024/1/30,14:10,34-54.95N,139-44.33E,142,17.712,
852,2024/1/30,14:11,34-54.67N,139-44.59E,143,17.721,
853,2024/1/30,14:12,34-54.39N,139-44.84E,143,17.728,
854,2024/1/30,14:13,34-54.11N,139-45.12E,138,17.642,
855,2024/1/30,14:14,34-53.87N,139-45.40E,135,17.611,
856,2024/1/30,14:15,34-53.64N,139-45.71E,130,17.586,
857,2024/1/30,14:16,34-53.41N,139-46.04E,130,17.417,
858,2024/1/30,14:17,34-53.19N,139-46.35E,131,17.23,
859,2024/1/30,14:18,34-52.98N,139-46.68E,121,17.134,
860,2024/1/30,14:19,34-52.83N,139-47.02E,117,17.02,
861,2024/1/30,14:20,34-52.69N,139-47.38E,114,16.953,
862,2024/1/30,14:21,34-52.54N,139-47.75E,118,16.595,
863,2024/1/30,14:22,34-52.40N,139-48.08E,116,16.474,
864,2024/1/30,14:23,34-52.24N,139-48.41E,121,16.7,
865,2024/1/30,14:24,34-52.08N,139-48.73E,122,16.686,
866,2024/1/30,14:25,34-51.92N,139-49.03E,124,16.65,
867,2024/1/30,14:26,34-51.70N,139-49.30E,138,16.599,
868,2024/1/30,14:27,34-51.45N,139-49.52E,144,16.555,
869,2024/1/30,14:28,34-51.20N,139-49.74E,143,16.531,
870,2024/1/30,14:29,34-50.96N,139-49.96E,143,16.529,
871,2024/1/30,14:30,34-50.72N,139-50.19E,141,16.53,
872,2024/1/30,14:31,34-50.53N,139-50.48E,121,16.504,
873,2024/1/30,14:32,34-50.41N,139-50.78E,116,16.508,
874,2024/1/30,14:33,34-50.27N,139-51.11E,116,16.543,
875,2024/1/30,14:34,34-50.13N,139-51.44E,116,16.722,
876,2024/1/30,14:35,34-50.00N,139-51.76E,116,17.119,
877,2024/1/30,14:36,34-49.87N,139-52.09E,116,17.49,
878,2024/1/30,14:37,34-49.73N,139-52.41E,116,17.502,
879,2024/1/30,14:38,34-49.68N,139-52.76E,92,17.716,
880,2024/1/30,14:39,34-49.73N,139-53.10E,76,17.788,
881,2024/1/30,14:40,34-49.84N,139-53.43E,63,17.741,
882,2024/1/30,14:41,34-50.01N,139-53.75E,57,17.784,
883,2024/1/30,14:42,34-50.17N,139-54.07E,59,17.897,
884,2024/1/30,14:43,34-50.32N,139-54.41E,62,17.94,
885,2024/1/30,14:44,34-50.45N,139-54.73E,63,17.954,
886,2024/1/30,14:45,34-50.60N,139-55.07E,63,18.014,
887,2024/1/30,14:46,34-50.73N,139-55.41E,63,18.073,
888,2024/1/30,14:47,34-50.87N,139-55.74E,63,18.087,
889,2024/1/30,14:48,34-51.01N,139-56.09E,64,18.086,
890,2024/1/30,14:49,34-51.14N,139-56.43E,64,18.101,
891,2024/1/30,14:50,34-51.28N,139-56.78E,64,18.115,
892,2024/1/30,14:51,34-51.41N,139-57.13E,64,18.15,
893,2024/1/30,14:52,34-51.54N,139-57.46E,64,18.183,
894,2024/1/30,14:53,34-51.68N,139-57.81E,64,18.224,
895,2024/1/30,14:54,34-51.81N,139-58.16E,64,18.262,
896,2024/1/30,14:55,34-51.95N,139-58.50E,64,18.256,
897,2024/1/30,14:56,34-52.08N,139-58.85E,64,18.271,
898,2024/1/30,14:57,34-52.22N,139-59.21E,65,18.303,
899,2024/1/30,14:58,34-52.36N,139-59.54E,61,18.3,
900,2024/1/30,14:59,34-52.51N,139-59.88E,61,18.294,
901,2024/1/30,15:00,34-52.65N,140-00.21E,61,18.214,
902,2024/1/30,15:01,34-52.81N,140-00.55E,61,18.073,
903,2024/1/30,15:02,34-52.96N,140-00.89E,61,18.05,
904,2024/1/30,15:03,34-53.10N,140-01.22E,61,18.087,
905,2024/1/30,15:04,34-53.25N,140-01.54E,61,18.114,
906,2024/1/30,15:05,34-53.40N,140-01.87E,61,18.119,
907,2024/1/30,15:06,34-53.55N,140-02.21E,61,18.116,
908,2024/1/30,15:07,34-53.70N,140-02.54E,61,18.108,
909,2024/1/30,15:08,34-53.85N,140-02.87E,61,18.086,
910,2024/1/30,15:09,34-53.99N,140-03.20E,61,18.091,
911,2024/1/30,15:10,34-54.14N,140-03.54E,63,18.08,
912,2024/1/30,15:11,34-54.28N,140-03.87E,63,18.062,
913,2024/1/30,15:12,34-54.40N,140-04.21E,65,18.039,
914,2024/1/30,15:13,34-54.53N,140-04.55E,65,18.036,
915,2024/1/30,15:14,34-54.66N,140-04.89E,65,18.08,
916,2024/1/30,15:15,34-54.79N,140-05.23E,64,18.121,
917,2024/1/30,15:16,34-54.92N,140-05.58E,65,18.145,
918,2024/1/30,15:17,34-55.05N,140-05.90E,64,18.157,
919,2024/1/30,15:18,34-55.18N,140-06.25E,64,18.182,
920,2024/1/30,15:19,34-55.31N,140-06.58E,64,18.237,
921,2024/1/30,15:20,34-55.45N,140-06.92E,64,18.294,
922,2024/1/30,15:21,34-55.58N,140-07.27E,65,18.32,
923,2024/1/30,15:22,34-55.71N,140-07.62E,64,18.334,
924,2024/1/30,15:23,34-55.84N,140-07.95E,64,18.374,
925,2024/1/30,15:24,34-55.98N,140-08.28E,63,18.422,
926,2024/1/30,15:25,34-56.12N,140-08.62E,62,18.445,
927,2024/1/30,15:26,34-56.26N,140-08.96E,62,18.462,
928,2024/1/30,15:27,34-56.41N,140-09.30E,62,18.473,
929,2024/1/30,15:28,34-56.54N,140-09.62E,62,18.477,
930,2024/1/30,15:29,34-56.69N,140-09.95E,62,18.48,
931,2024/1/30,15:30,34-56.83N,140-10.29E,62,18.507,
932,2024/1/30,15:31,34-56.97N,140-10.63E,62,18.549,
933,2024/1/30,15:32,34-57.11N,140-10.96E,62,18.562,
934,2024/1/30,15:33,34-57.26N,140-11.30E,62,18.601,
935,2024/1/30,15:34,34-57.40N,140-11.63E,62,18.639,
936,2024/1/30,15:35,34-57.54N,140-11.97E,61,18.656,
937,2024/1/30,15:36,34-57.70N,140-12.32E,60,18.69,
938,2024/1/30,15:37,34-57.85N,140-12.64E,60,18.732,
939,2024/1/30,15:38,34-58.03N,140-13.02E,60,18.763,
940,2024/1/30,15:39,34-58.20N,140-13.37E,60,18.798,
941,2024/1/30,15:40,34-58.33N,140-13.65E,60,18.827,
942,2024/1/30,15:41,34-58.48N,140-13.98E,60,18.869,
943,2024/1/30,15:42,34-58.65N,140-14.33E,60,18.892,
944,2024/1/30,15:43,34-58.80N,140-14.65E,60,18.917,
945,2024/1/30,15:44,34-58.96N,140-14.99E,58,18.937,
946,2024/1/30,15:45,34-59.13N,140-15.30E,58,18.942,
947,2024/1/30,15:46,34-59.30N,140-15.64E,58,18.951,
948,2024/1/30,15:47,34-59.46N,140-15.96E,58,18.97,
949,2024/1/30,15:48,34-59.63N,140-16.29E,57,18.985,
950,2024/1/30,15:49,34-59.81N,140-16.62E,56,18.985,
951,2024/1/30,15:50,34-59.98N,140-16.94E,57,18.988,
952,2024/1/30,15:51,35-00.17N,140-17.26E,55,18.997,
953,2024/1/30,15:52,35-00.35N,140-17.57E,55,19.007,
954,2024/1/30,15:53,35-00.53N,140-17.90E,55,19.014,
955,2024/1/30,15:54,35-00.71N,140-18.22E,55,19.026,
956,2024/1/30,15:55,35-00.90N,140-18.56E,55,19.036,
957,2024/1/30,15:56,35-01.08N,140-18.89E,55,19.053,
958,2024/1/30,15:57,35-01.25N,140-19.19E,55,19.069,
959,2024/1/30,15:58,35-01.44N,140-19.53E,55,19.086,
960,2024/1/30,15:59,35-01.62N,140-19.85E,55,19.1,
961,2024/1/30,16:00,35-01.80N,140-20.17E,55,19.116,
962,2024/1/30,16:01,35-01.99N,140-20.51E,55,19.129,
963,2024/1/30,16:02,35-02.17N,140-20.84E,56,19.134,
964,2024/1/30,16:03,35-02.35N,140-21.16E,56,19.138,
965,2024/1/30,16:04,35-02.53N,140-21.50E,58,19.143,
966,2024/1/30,16:05,35-02.70N,140-21.84E,58,19.159,
967,2024/1/30,16:06,35-02.87N,140-22.18E,59,19.163,
968,2024/1/30,16:07,35-03.03N,140-22.52E,60,19.171,
969,2024/1/30,16:08,35-03.19N,140-22.87E,60,19.177,
970,2024/1/30,16:09,35-03.36N,140-23.23E,60,19.175,
971,2024/1/30,16:10,35-03.53N,140-23.58E,60,19.153,
972,2024/1/30,16:11,35-03.70N,140-23.94E,59,19.137,
973,2024/1/30,16:12,35-03.86N,140-24.27E,60,19.136,
974,2024/1/30,16:13,35-04.03N,140-24.63E,59,19.143,
975,2024/1/30,16:14,35-04.20N,140-24.98E,60,19.155,
976,2024/1/30,16:15,35-04.37N,140-25.34E,59,19.173,
977,2024/1/30,16:16,35-04.54N,140-25.70E,59,19.195,
978,2024/1/30,16:17,35-04.70N,140-26.04E,60,19.207,
979,2024/1/30,16:18,35-04.88N,140-26.41E,60,19.221,
980,2024/1/30,16:19,35-05.05N,140-26.77E,60,19.221,
981,2024/1/30,16:20,35-05.21N,140-27.12E,60,19.219,
982,2024/1/30,16:21,35-05.39N,140-27.49E,59,19.209,
983,2024/1/30,16:22,35-05.56N,140-27.85E,60,19.197,
984,2024/1/30,16:23,35-05.73N,140-28.20E,60,19.172,
985,2024/1/30,16:24,35-05.90N,140-28.57E,60,19.1,
986,2024/1/30,16:25,35-06.07N,140-28.93E,60,19.001,
987,2024/1/30,16:26,35-06.25N,140-29.30E,60,18.947,
988,2024/1/30,16:27,35-06.42N,140-29.67E,60,18.946,
989,2024/1/30,16:28,35-06.60N,140-30.00E,54,18.944,
990,2024/1/30,16:29,35-06.84N,140-30.28E,39,18.951,
991,2024/1/30,16:30,35-07.09N,140-30.53E,38,18.946,
992,2024/1/30,16:31,35-07.36N,140-30.79E,38,18.92,
993,2024/1/30,16:32,35-07.62N,140-31.03E,38,18.901,
994,2024/1/30,16:33,35-07.88N,140-31.29E,39,18.859,
995,2024/1/30,16:34,35-08.15N,140-31.55E,38,18.834,
996,2024/1/30,16:35,35-08.40N,140-31.80E,38,18.834,
997,2024/1/30,16:36,35-08.67N,140-32.06E,39,18.821,
998,2024/1/30,16:37,35-08.93N,140-32.33E,38,18.798,
999,2024/1/30,16:38,35-09.19N,140-32.58E,39,18.675,
1000,2024/1/30,16:39,35-09.46N,140-32.84E,39,18.596,
1001,2024/1/30,16:40,35-09.72N,140-33.11E,39,18.515,
1002,2024/1/30,16:41,35-09.98N,140-33.37E,39,18.408,
1003,2024/1/30,16:42,35-10.24N,140-33.62E,38,18.352,
1004,2024/1/30,16:43,35-10.52N,140-33.89E,39,18.192,
1005,2024/1/30,16:44,35-10.77N,140-34.14E,38,18.147,
1006,2024/1/30,16:45,35-11.03N,140-34.39E,38,18.131,
1007,2024/1/30,16:46,35-11.28N,140-34.63E,37,17.783,
1008,2024/1/30,16:47,35-11.54N,140-34.86E,37,17.592,
1009,2024/1/30,16:48,35-11.79N,140-35.09E,35,17.582,
1010,2024/1/30,16:49,35-12.05N,140-35.32E,35,17.538,
1011,2024/1/30,16:50,35-12.31N,140-35.54E,35,17.492,
1012,2024/1/30,16:51,35-12.57N,140-35.76E,35,17.421,
1013,2024/1/30,16:52,35-12.82N,140-35.98E,35,17.372,
1014,2024/1/30,16:53,35-13.07N,140-36.21E,36,17.343,
1015,2024/1/30,16:54,35-13.34N,140-36.44E,36,17.347,
1016,2024/1/30,16:55,35-13.59N,140-36.67E,35,17.246,
1017,2024/1/30,16:56,35-13.85N,140-36.90E,36,17.216,
1018,2024/1/30,16:57,35-14.12N,140-37.13E,35,17.154,
1019,2024/1/30,16:58,35-14.38N,140-37.36E,35,16.954,
1020,2024/1/30,16:59,35-14.65N,140-37.58E,33,16.692,
1021,2024/1/30,17:00,35-14.90N,140-37.79E,33,16.626,
1022,2024/1/30,17:01,35-15.17N,140-38.01E,34,16.63,
1023,2024/1/30,17:02,35-15.42N,140-38.22E,33,16.619,
1024,2024/1/30,17:03,35-15.69N,140-38.43E,33,16.58,
1025,2024/1/30,17:04,35-15.95N,140-38.64E,33,16.574,
1026,2024/1/30,17:05,35-16.20N,140-38.85E,33,16.56,
1027,2024/1/30,17:06,35-16.46N,140-39.06E,33,16.509,
1028,2024/1/30,17:07,35-16.72N,140-39.27E,33,16.406,
1029,2024/1/30,17:08,35-16.98N,140-39.48E,33,16.405,
1030,2024/1/30,17:09,35-17.25N,140-39.69E,33,16.427,
1031,2024/1/30,17:10,35-17.50N,140-39.90E,34,16.482,
1032,2024/1/30,17:11,35-17.76N,140-40.11E,33,16.531,
1033,2024/1/30,17:12,35-18.03N,140-40.33E,33,16.569,
1034,2024/1/30,17:13,35-18.28N,140-40.53E,33,16.602,
1035,2024/1/30,17:14,35-18.54N,140-40.75E,34,16.653,
1036,2024/1/30,17:15,35-18.79N,140-40.95E,33,16.681,
1037,2024/1/30,17:16,35-19.05N,140-41.16E,32,16.837,
1038,2024/1/30,17:17,35-19.32N,140-41.37E,33,17.043,
1039,2024/1/30,17:18,35-19.59N,140-41.59E,33,17.131,
1040,2024/1/30,17:19,35-19.84N,140-41.79E,34,17.213,
1041,2024/1/30,17:20,35-20.09N,140-42.00E,33,17.281,
1042,2024/1/30,17:21,35-20.35N,140-42.22E,33,17.357,
1043,2024/1/30,17:22,35-20.61N,140-42.43E,34,17.405,
1044,2024/1/30,17:23,35-20.87N,140-42.64E,33,17.438,
1045,2024/1/30,17:24,35-21.14N,140-42.86E,34,17.448,
1046,2024/1/30,17:25,35-21.39N,140-43.07E,33,17.436,
1047,2024/1/30,17:26,35-21.66N,140-43.29E,34,17.416,
1048,2024/1/30,17:27,35-21.93N,140-43.51E,34,17.388,
1049,2024/1/30,17:28,35-22.18N,140-43.72E,34,17.364,
1050,2024/1/30,17:29,35-22.45N,140-43.94E,34,17.325,
1051,2024/1/30,17:30,35-22.71N,140-44.15E,33,17.32,
1052,2024/1/30,17:31,35-22.97N,140-44.37E,34,17.258,
1053,2024/1/30,17:32,35-23.24N,140-44.60E,33,17.172,
1054,2024/1/30,17:33,35-23.50N,140-44.81E,34,17.178,
1055,2024/1/30,17:34,35-23.77N,140-45.03E,33,17.18,
1056,2024/1/30,17:35,35-24.03N,140-45.23E,29,17.274,
1057,2024/1/30,17:36,35-24.31N,140-45.42E,28,17.422,
1058,2024/1/30,17:37,35-24.59N,140-45.60E,27,17.514,
1059,2024/1/30,17:38,35-24.87N,140-45.78E,29,17.621,
1060,2024/1/30,17:39,35-25.15N,140-45.97E,29,17.686,
1061,2024/1/30,17:40,35-25.43N,140-46.17E,29,17.767,
1062,2024/1/30,17:41,35-25.70N,140-46.35E,29,17.824,
1063,2024/1/30,17:42,35-25.97N,140-46.57E,33,17.873,
1064,2024/1/30,17:43,35-26.23N,140-46.79E,34,17.928,
1065,2024/1/30,17:44,35-26.50N,140-47.02E,34,17.977,
1066,2024/1/30,17:45,35-26.77N,140-47.24E,34,17.988,
1067,2024/1/30,17:46,35-27.03N,140-47.46E,34,17.968,
1068,2024/1/30,17:47,35-27.30N,140-47.69E,34,17.922,
1069,2024/1/30,17:48,35-27.57N,140-47.92E,35,17.853,
1070,2024/1/30,17:49,35-27.83N,140-48.15E,34,17.817,
1071,2024/1/30,17:50,35-28.10N,140-48.38E,34,17.773,
1072,2024/1/30,17:51,35-28.37N,140-48.61E,35,17.625,
1073,2024/1/30,17:52,35-28.64N,140-48.84E,35,17.716,
1074,2024/1/30,17:53,35-28.90N,140-49.07E,35,17.687,
1075,2024/1/30,17:54,35-29.17N,140-49.31E,35,17.505,
1076,2024/1/30,17:55,35-29.43N,140-49.54E,36,17.379,
1077,2024/1/30,17:56,35-29.66N,140-49.78E,40,17.33,
1078,2024/1/30,17:57,35-29.94N,140-50.07E,40,17.341,
1079,2024/1/30,17:58,35-30.18N,140-50.32E,41,17.369,
1080,2024/1/30,17:59,35-30.42N,140-50.58E,40,17.384,
1081,2024/1/30,18:00,35-30.67N,140-50.84E,40,17.375,
1082,2024/1/30,18:01,35-30.92N,140-51.11E,40,17.348,
1083,2024/1/30,18:02,35-31.16N,140-51.36E,40,17.32,
1084,2024/1/30,18:03,35-31.41N,140-51.63E,41,17.259,
1085,2024/1/30,18:04,35-31.65N,140-51.89E,41,17.091,
1086,2024/1/30,18:05,35-31.90N,140-52.16E,41,16.766,
1087,2024/1/30,18:06,35-32.15N,140-52.43E,41,16.657,
1088,2024/1/30,18:07,35-32.39N,140-52.68E,40,16.655,
1089,2024/1/30,18:08,35-32.66N,140-52.99E,44,16.58,
1090,2024/1/30,18:09,35-32.90N,140-53.28E,44,16.484,
1091,2024/1/30,18:10,35-33.13N,140-53.56E,44,16.441,
1092,2024/1/30,18:11,35-33.33N,140-53.77E,40,16.339,
1093,2024/1/30,18:12,35-33.60N,140-54.01E,34,16.168,
1094,2024/1/30,18:13,35-33.86N,140-54.23E,34,15.961,
1095,2024/1/30,18:14,35-34.14N,140-54.47E,35,15.782,
1096,2024/1/30,18:15,35-34.39N,140-54.68E,34,15.698,
1097,2024/1/30,18:16,35-34.66N,140-54.91E,34,15.619,
1098,2024/1/30,18:17,35-34.92N,140-55.13E,34,15.567,
1099,2024/1/30,18:18,35-35.18N,140-55.34E,34,15.494,
1100,2024/1/30,18:19,35-35.44N,140-55.58E,35,15.278,
1101,2024/1/30,18:20,35-35.69N,140-55.79E,35,15.22,
1102,2024/1/30,18:21,35-35.95N,140-56.02E,35,15.181,
1103,2024/1/30,18:22,35-36.22N,140-56.25E,34,15.172,
1104,2024/1/30,18:23,35-36.47N,140-56.46E,35,15.185,
1105,2024/1/30,18:24,35-36.73N,140-56.69E,34,15.186,
1106,2024/1/30,18:25,35-36.99N,140-56.90E,35,15.124,
1107,2024/1/30,18:26,35-37.24N,140-57.12E,35,15.066,
1108,2024/1/30,18:27,35-37.54N,140-57.35E,26,15.062,
1109,2024/1/30,18:28,35-37.83N,140-57.44E,12,15.05,
1110,2024/1/30,18:29,35-38.13N,140-57.48E,5,14.96,
1111,2024/1/30,18:30,35-38.38N,140-57.50E,3,15.015,
1112,2024/1/30,18:31,35-38.68N,140-57.52E,3,15.04,
1113,2024/1/30,18:32,35-38.99N,140-57.54E,3,15.092,
1114,2024/1/30,18:33,35-39.29N,140-57.56E,3,15.203,
1115,2024/1/30,18:34,35-39.60N,140-57.58E,2,15.36,
1116,2024/1/30,18:35,35-39.88N,140-57.60E,3,15.504,
1117,2024/1/30,18:36,35-40.19N,140-57.62E,3,15.577,
1118,2024/1/30,18:37,35-40.49N,140-57.64E,2,15.706,
1119,2024/1/30,18:38,35-40.79N,140-57.65E,2,15.831,
1120,2024/1/30,18:39,35-41.10N,140-57.67E,2,15.936,
1121,2024/1/30,18:40,35-41.39N,140-57.68E,2,15.993,
1122,2024/1/30,18:41,35-41.69N,140-57.70E,2,16.055,
1123,2024/1/30,18:42,35-41.99N,140-57.72E,2,16.167,
1124,2024/1/30,18:43,35-42.29N,140-57.74E,2,16.251,
1125,2024/1/30,18:44,35-42.60N,140-57.75E,2,16.305,
1126,2024/1/30,18:45,35-42.90N,140-57.77E,2,16.349,
1127,2024/1/30,18:46,35-43.21N,140-57.78E,2,16.438,
1128,2024/1/30,18:47,35-43.53N,140-57.80E,2,16.538,
1129,2024/1/30,18:48,35-43.83N,140-57.82E,2,16.582,
1130,2024/1/30,18:49,35-44.14N,140-57.83E,2,16.63,